VA164 NZWN-YMHB

Flight info

Callsign VA164
Flight time 3h 10m
Altitude 36000
Route UPLU2P VANDA KABIN M643 PECOB IPLET IPLE7V
Aircraft B38M/M-SDE1FGHILORVWXY/S

Departure

Time 2026-05-09 07:12
Airport Wellington International Airport (NZWN)

Arrival

Time 2026-05-09 10:22
Airport Hobart International Airport (YMHB)
Time Latitude Longitude Altitude Speed Heading
2026-05-09 06:36 -41.32832 174.80980 20 ft 0 kts 69°
2026-05-09 06:55 -41.32806 174.80961 22 ft 0 kts 120°
2026-05-09 07:03 -41.32805 174.80958 20 ft 3 kts 120°
2026-05-09 07:04 -41.32795 174.80937 20 ft 3 kts 140°
2026-05-09 07:04 -41.32778 174.80930 21 ft 3 kts 204°
2026-05-09 07:04 -41.32774 174.80933 20 ft 0 kts 211°
2026-05-09 07:07 -41.32781 174.80927 22 ft 0 kts 211°
2026-05-09 07:08 -41.32782 174.80927 20 ft 0 kts 211°
2026-05-09 07:08 -41.32795 174.80916 22 ft 0 kts 211°
2026-05-09 07:09 -41.32803 174.80906 20 ft 3 kts 226°
2026-05-09 07:09 -41.32823 174.80865 20 ft 8 kts 253°
2026-05-09 07:09 -41.32867 174.80806 22 ft 10 kts 193°
2026-05-09 07:10 -41.32950 174.80801 20 ft 14 kts 182°
2026-05-09 07:10 -41.33047 174.80794 21 ft 14 kts 182°
2026-05-09 07:10 -41.33150 174.80788 20 ft 15 kts 182°
2026-05-09 07:10 -41.33256 174.80781 22 ft 15 kts 182°
2026-05-09 07:11 -41.33365 174.80774 21 ft 16 kts 182°
2026-05-09 07:11 -41.33485 174.80762 18 ft 17 kts 199°
2026-05-09 07:11 -41.33529 174.80639 14 ft 9 kts 295°
2026-05-09 07:11 -41.33501 174.80628 14 ft 3 kts
2026-05-09 07:12 -41.33416 174.80636 16 ft 39 kts
2026-05-09 07:12 -41.32909 174.80672 23 ft 104 kts
2026-05-09 07:12 -41.32004 174.80747 94 ft 148 kts
2026-05-09 07:12 -41.30974 174.80791 739 ft 146 kts 358°
2026-05-09 07:13 -41.29935 174.80831 1273 ft 148 kts 359°
2026-05-09 07:13 -41.28901 174.80909 789 ft 156 kts 359°
2026-05-09 07:13 -41.27850 174.80887 556 ft 153 kts 355°
2026-05-09 07:13 -41.26823 174.80696 699 ft 150 kts 340°
2026-05-09 07:14 -41.25894 174.79927 923 ft 163 kts 322°
2026-05-09 07:14 -41.25117 174.78899 1442 ft 144 kts 315°
2026-05-09 07:14 -41.24597 174.77884 2483 ft 128 kts 292°
2026-05-09 07:14 -41.24339 174.76662 2787 ft 149 kts 287°
2026-05-09 07:15 -41.24071 174.75218 3009 ft 168 kts 285°
2026-05-09 07:15 -41.23735 174.73683 3483 ft 186 kts 288°
2026-05-09 07:15 -41.23333 174.71999 4126 ft 196 kts 289°
2026-05-09 07:15 -41.22902 174.70241 4847 ft 201 kts 288°
2026-05-09 07:16 -41.22459 174.68412 5413 ft 217 kts 287°
2026-05-09 07:16 -41.21979 174.66438 5868 ft 235 kts 286°
2026-05-09 07:16 -41.21463 174.64316 6422 ft 247 kts 286°
2026-05-09 07:16 -41.20928 174.62111 7094 ft 254 kts 286°
2026-05-09 07:17 -41.20381 174.59865 7908 ft 257 kts 286°
2026-05-09 07:17 -41.19829 174.57598 8696 ft 260 kts 286°
2026-05-09 07:17 -41.19271 174.55304 9485 ft 262 kts 286°
2026-05-09 07:17 -41.18708 174.52996 10174 ft 266 kts 287°
2026-05-09 07:18 -41.18121 174.50592 10560 ft 283 kts 287°
2026-05-09 07:18 -41.17490 174.48015 10812 ft 303 kts 287°
2026-05-09 07:18 -41.16824 174.45299 11164 ft 317 kts 287°
2026-05-09 07:18 -41.16129 174.42465 11609 ft 328 kts 287°
2026-05-09 07:19 -41.15414 174.39553 12155 ft 335 kts 287°
2026-05-09 07:19 -41.14689 174.36601 12820 ft 338 kts 287°
2026-05-09 07:19 -41.14204 174.34626 13258 ft 341 kts 287°
2026-05-09 07:19 -41.13466 174.31619 13854 ft 344 kts 287°
2026-05-09 07:20 -41.12721 174.28594 14367 ft 349 kts 287°
2026-05-09 07:20 -41.11958 174.25497 14832 ft 355 kts 287°
2026-05-09 07:20 -41.11186 174.22363 15368 ft 359 kts 287°
2026-05-09 07:20 -41.10153 174.18185 16040 ft 364 kts 287°
2026-05-09 07:21 -41.09616 174.16019 16375 ft 367 kts 287°
2026-05-09 07:21 -41.08816 174.12784 16819 ft 371 kts 287°
2026-05-09 07:21 -41.08007 174.09530 17316 ft 373 kts 287°
2026-05-09 07:21 -41.07193 174.06251 17842 ft 377 kts 288°
2026-05-09 07:22 -41.06368 174.02932 18253 ft 381 kts 287°
2026-05-09 07:22 -41.05535 173.99589 18726 ft 383 kts 287°
2026-05-09 07:22 -41.04695 173.96222 19093 ft 388 kts 287°
2026-05-09 07:22 -41.03846 173.92820 19583 ft 389 kts 287°
2026-05-09 07:23 -41.02997 173.89430 19994 ft 392 kts 287°
2026-05-09 07:23 -41.02142 173.86017 20371 ft 396 kts 287°
2026-05-09 07:23 -41.01505 173.82432 20784 ft 396 kts 272°
2026-05-09 07:23 -41.01710 173.78861 21174 ft 396 kts 255°
2026-05-09 07:24 -41.02679 173.75461 21557 ft 397 kts 239°
2026-05-09 07:24 -41.04162 173.72370 21946 ft 400 kts 238°
2026-05-09 07:24 -41.05617 173.69202 22342 ft 403 kts 238°
2026-05-09 07:24 -41.07063 173.66000 22757 ft 405 kts 239°
2026-05-09 07:25 -41.08499 173.62781 23144 ft 408 kts 239°
2026-05-09 07:25 -41.09941 173.59529 23489 ft 410 kts 239°
2026-05-09 07:25 -41.11388 173.56251 23611 ft 419 kts 239°
2026-05-09 07:25 -41.12870 173.52865 23543 ft 431 kts 239°
2026-05-09 07:26 -41.14393 173.49375 23525 ft 442 kts 239°
2026-05-09 07:26 -41.15949 173.45818 23669 ft 448 kts 239°
2026-05-09 07:26 -41.17515 173.42247 24031 ft 448 kts 238°
2026-05-09 07:26 -41.19092 173.38664 24381 ft 450 kts 238°
2026-05-09 07:27 -41.20675 173.35056 24674 ft 452 kts 238°
2026-05-09 07:27 -41.22260 173.31444 24988 ft 454 kts 238°
2026-05-09 07:27 -41.23846 173.27822 25266 ft 456 kts 238°
2026-05-09 07:27 -41.25444 173.24170 25555 ft 458 kts 238°
2026-05-09 07:28 -41.27043 173.20510 25826 ft 460 kts 238°
2026-05-09 07:28 -41.28656 173.16814 26085 ft 462 kts 238°
2026-05-09 07:28 -41.30266 173.13121 26402 ft 461 kts 238°
2026-05-09 07:28 -41.31848 173.09499 26778 ft 458 kts 237°
2026-05-09 07:29 -41.33448 173.05829 27073 ft 458 kts 237°
2026-05-09 07:29 -41.35040 173.02172 27342 ft 457 kts 237°
2026-05-09 07:29 -41.36621 172.98529 27675 ft 454 kts 238°
2026-05-09 07:29 -41.38198 172.94901 27963 ft 452 kts 238°
2026-05-09 07:30 -41.39768 172.91280 28152 ft 451 kts 238°
2026-05-09 07:30 -41.41336 172.87659 28331 ft 451 kts 238°
2026-05-09 07:30 -41.42904 172.84032 28515 ft 451 kts 238°
2026-05-09 07:30 -41.44468 172.80407 28720 ft 450 kts 238°
2026-05-09 07:31 -41.46025 172.76797 28916 ft 449 kts 238°
2026-05-09 07:31 -41.47586 172.73172 29131 ft 449 kts 238°
2026-05-09 07:31 -41.49132 172.69579 29367 ft 448 kts 238°
2026-05-09 07:31 -41.50681 172.65973 29594 ft 448 kts 238°
2026-05-09 07:32 -41.52228 172.62368 29830 ft 447 kts 238°
2026-05-09 07:32 -41.53771 172.58768 30038 ft 447 kts 238°
2026-05-09 07:32 -41.55310 172.55172 30305 ft 445 kts 238°
2026-05-09 07:32 -41.56823 172.51638 30565 ft 443 kts 238°
2026-05-09 07:33 -41.58347 172.48071 30789 ft 442 kts 238°
2026-05-09 07:33 -41.61402 172.40905 31202 ft 441 kts 238°
2026-05-09 07:33 -41.62893 172.37396 31460 ft 438 kts 238°
2026-05-09 07:34 -41.64396 172.33865 31677 ft 437 kts 238°
2026-05-09 07:34 -41.65899 172.30320 31848 ft 437 kts 238°
2026-05-09 07:34 -41.67396 172.26791 32031 ft 436 kts 238°
2026-05-09 07:34 -41.68891 172.23260 32198 ft 436 kts 238°
2026-05-09 07:35 -41.70388 172.19720 32372 ft 435 kts 238°
2026-05-09 07:35 -41.71873 172.16203 32551 ft 435 kts 238°
2026-05-09 07:35 -41.73354 172.12692 32686 ft 435 kts 238°
2026-05-09 07:35 -41.74837 172.09170 32870 ft 435 kts 238°
2026-05-09 07:36 -41.76321 172.05649 33104 ft 433 kts 238°
2026-05-09 07:36 -41.77801 172.02127 33298 ft 433 kts 238°
2026-05-09 07:36 -41.79268 171.98629 33631 ft 429 kts 238°
2026-05-09 07:37 -41.82168 171.91712 33669 ft 426 kts 238°
2026-05-09 07:37 -41.85069 171.84770 33683 ft 426 kts 238°
2026-05-09 07:38 -41.87937 171.77890 33681 ft 425 kts 238°
2026-05-09 07:38 -41.90825 171.70945 33704 ft 426 kts 238°
2026-05-09 07:39 -41.93709 171.63996 33664 ft 425 kts 238°
2026-05-09 07:39 -41.96582 171.57054 33686 ft 425 kts 238°
2026-05-09 07:40 -41.99448 171.50116 33693 ft 425 kts 238°
2026-05-09 07:40 -42.02314 171.43159 33671 ft 425 kts 238°
2026-05-09 07:41 -42.05179 171.36187 33677 ft 425 kts 238°
2026-05-09 07:41 -42.08029 171.29241 33688 ft 419 kts 238°
2026-05-09 07:42 -42.10811 171.22452 33679 ft 413 kts 238°
2026-05-09 07:42 -42.13583 171.15659 33670 ft 414 kts 238°
2026-05-09 07:43 -42.16348 171.08867 33672 ft 414 kts 238°
2026-05-09 07:43 -42.19115 171.02056 33672 ft 414 kts 238°
2026-05-09 07:44 -42.21870 170.95258 33677 ft 414 kts 238°
2026-05-09 07:44 -42.24615 170.88470 33655 ft 414 kts 238°
2026-05-09 07:45 -42.27365 170.81650 33666 ft 412 kts 238°
2026-05-09 07:45 -42.30100 170.74857 33667 ft 412 kts 238°
2026-05-09 07:46 -42.32831 170.68053 33670 ft 411 kts 238°
2026-05-09 07:46 -42.35549 170.61268 33669 ft 411 kts 238°
2026-05-09 07:47 -42.38268 170.54466 33669 ft 411 kts 238°
2026-05-09 07:47 -42.40982 170.47659 33661 ft 410 kts 238°
2026-05-09 07:48 -42.43687 170.40858 33671 ft 410 kts 238°
2026-05-09 07:48 -42.46374 170.34088 33662 ft 410 kts 238°
2026-05-09 07:49 -42.49056 170.27314 33662 ft 410 kts 238°
2026-05-09 07:49 -42.51747 170.20498 33664 ft 410 kts 238°
2026-05-09 07:50 -42.54431 170.13686 33670 ft 407 kts 238°
2026-05-09 07:50 -42.57073 170.06969 33666 ft 403 kts 238°
2026-05-09 07:51 -42.59708 170.00246 33685 ft 403 kts 239°
2026-05-09 07:51 -42.62323 169.93566 33662 ft 400 kts 239°
2026-05-09 07:52 -42.64914 169.86928 33665 ft 400 kts 239°
2026-05-09 07:52 -42.67516 169.80248 33658 ft 400 kts 239°
2026-05-09 07:53 -42.70107 169.73580 33655 ft 400 kts 239°
2026-05-09 07:53 -42.72708 169.66871 33664 ft 400 kts 239°
2026-05-09 07:54 -42.75303 169.60162 33665 ft 400 kts 239°
2026-05-09 07:54 -42.77877 169.53489 33659 ft 397 kts 239°
2026-05-09 07:55 -42.80432 169.46853 33656 ft 397 kts 239°
2026-05-09 07:55 -42.82997 169.40177 33631 ft 398 kts 239°
2026-05-09 07:56 -42.85574 169.33450 33655 ft 402 kts 239°
2026-05-09 07:56 -42.88135 169.26749 33660 ft 401 kts 239°
2026-05-09 07:57 -42.90712 169.19991 33664 ft 401 kts 239°
2026-05-09 07:57 -42.93274 169.13257 33671 ft 398 kts 240°
2026-05-09 07:58 -42.95810 169.06575 33661 ft 396 kts 240°
2026-05-09 07:58 -42.98343 168.99886 33652 ft 396 kts 240°
2026-05-09 07:59 -43.00860 168.93225 33657 ft 398 kts 240°
2026-05-09 07:59 -43.03402 168.86479 33656 ft 399 kts 240°
2026-05-09 08:00 -43.05932 168.79749 33653 ft 399 kts 240°
2026-05-09 08:00 -43.08471 168.72980 33670 ft 398 kts 240°
2026-05-09 08:01 -43.10987 168.66254 33636 ft 397 kts 240°
2026-05-09 08:01 -43.13507 168.59504 33645 ft 398 kts 240°
2026-05-09 08:02 -43.15260 168.52402 33646 ft 405 kts 259°
2026-05-09 08:02 -43.15901 168.44711 33638 ft 407 kts 258°
2026-05-09 08:03 -43.16515 168.36987 33645 ft 408 kts 259°
2026-05-09 08:03 -43.17109 168.29257 33636 ft 408 kts 259°
2026-05-09 08:04 -43.17693 168.21550 33651 ft 408 kts 259°
2026-05-09 08:04 -43.18274 168.13820 33650 ft 408 kts 259°
2026-05-09 08:05 -43.18848 168.06107 33656 ft 408 kts 259°
2026-05-09 08:05 -43.19323 167.99675 33658 ft 408 kts 259°
2026-05-09 08:06 -43.19888 167.91955 33656 ft 405 kts 259°
2026-05-09 08:06 -43.20533 167.83043 33803 ft 404 kts 259°
2026-05-09 08:06 -43.20734 167.80251 33938 ft 405 kts 259°
2026-05-09 08:07 -43.20921 167.77638 34052 ft 405 kts 259°
2026-05-09 08:07 -43.21196 167.73792 34230 ft 405 kts 259°
2026-05-09 08:07 -43.21465 167.69999 34406 ft 405 kts 260°
2026-05-09 08:07 -43.21737 167.66160 34582 ft 405 kts 260°
2026-05-09 08:08 -43.22008 167.62310 34750 ft 405 kts 260°
2026-05-09 08:08 -43.22276 167.58480 34907 ft 405 kts 260°
2026-05-09 08:08 -43.22544 167.54635 35076 ft 405 kts 260°
2026-05-09 08:08 -43.22809 167.50808 35235 ft 405 kts 260°
2026-05-09 08:09 -43.23074 167.46966 35384 ft 405 kts 260°
2026-05-09 08:09 -43.23338 167.43127 35533 ft 404 kts 260°
2026-05-09 08:09 -43.23601 167.39273 35665 ft 404 kts 260°
2026-05-09 08:10 -43.24123 167.31584 35661 ft 404 kts 260°
2026-05-09 08:10 -43.24639 167.23901 35661 ft 404 kts 260°
2026-05-09 08:11 -43.25145 167.16285 35663 ft 404 kts 260°
2026-05-09 08:11 -43.25650 167.08604 35661 ft 404 kts 260°
2026-05-09 08:12 -43.26403 166.97053 35671 ft 404 kts 260°
2026-05-09 08:12 -43.26890 166.89366 35679 ft 404 kts 261°
2026-05-09 08:13 -43.27372 166.81710 35684 ft 402 kts 261°
2026-05-09 08:13 -43.27846 166.74084 35680 ft 401 kts 261°
2026-05-09 08:14 -43.28316 166.66461 35679 ft 401 kts 261°
2026-05-09 08:14 -43.28781 166.58828 35683 ft 401 kts 261°
2026-05-09 08:15 -43.29238 166.51232 35686 ft 401 kts 261°
2026-05-09 08:15 -43.29692 166.43626 35690 ft 400 kts 261°
2026-05-09 08:16 -43.30140 166.36011 35692 ft 400 kts 261°
2026-05-09 08:16 -43.30579 166.28477 35698 ft 400 kts 261°
2026-05-09 08:17 -43.31019 166.20822 35697 ft 400 kts 261°
2026-05-09 08:17 -43.31452 166.13223 35686 ft 400 kts 261°
2026-05-09 08:18 -43.31880 166.05611 35700 ft 400 kts 261°
2026-05-09 08:18 -43.32303 165.97994 35703 ft 400 kts 261°
2026-05-09 08:19 -43.32721 165.90376 35708 ft 400 kts 261°
2026-05-09 08:19 -43.33133 165.82764 35708 ft 400 kts 261°
2026-05-09 08:20 -43.33538 165.75207 35721 ft 399 kts 261°
2026-05-09 08:20 -43.33939 165.67621 35704 ft 397 kts 261°
2026-05-09 08:21 -43.34335 165.60039 35710 ft 398 kts 261°
2026-05-09 08:21 -43.34725 165.52468 35711 ft 398 kts 261°
2026-05-09 08:22 -43.35110 165.44903 35719 ft 397 kts 261°
2026-05-09 08:22 -43.35490 165.37323 35719 ft 397 kts 261°
2026-05-09 08:23 -43.35866 165.29742 35717 ft 398 kts 261°
2026-05-09 08:23 -43.36237 165.22153 35716 ft 398 kts 261°
2026-05-09 08:24 -43.36600 165.14620 35719 ft 398 kts 261°
2026-05-09 08:24 -43.36959 165.07058 35709 ft 398 kts 261°
2026-05-09 08:25 -43.37317 164.99436 35721 ft 399 kts 261°
2026-05-09 08:25 -43.37668 164.91834 35728 ft 398 kts 261°
2026-05-09 08:26 -43.38012 164.84275 35721 ft 399 kts 261°
2026-05-09 08:26 -43.38352 164.76689 35732 ft 399 kts 261°
2026-05-09 08:27 -43.38689 164.69078 35712 ft 399 kts 261°
2026-05-09 08:27 -43.39019 164.61492 35723 ft 396 kts 261°
2026-05-09 08:28 -43.39344 164.53922 35737 ft 397 kts 261°
2026-05-09 08:28 -43.39664 164.46343 35733 ft 397 kts 261°
2026-05-09 08:29 -43.39975 164.38843 35740 ft 397 kts 262°
2026-05-09 08:29 -43.40285 164.31273 35745 ft 397 kts 262°
2026-05-09 08:30 -43.40590 164.23694 35740 ft 396 kts 262°
2026-05-09 08:30 -43.40890 164.16113 35753 ft 397 kts 262°
2026-05-09 08:31 -43.41183 164.08560 35745 ft 397 kts 262°
2026-05-09 08:31 -43.41473 164.00983 35752 ft 397 kts 262°
2026-05-09 08:32 -43.41758 163.93384 35749 ft 398 kts 262°
2026-05-09 08:33 -43.42176 163.82032 35755 ft 398 kts 262°
2026-05-09 08:33 -43.42448 163.74453 35758 ft 398 kts 262°
2026-05-09 08:34 -43.42716 163.66850 35762 ft 398 kts 262°
2026-05-09 08:34 -43.42979 163.59241 35782 ft 398 kts 262°
2026-05-09 08:35 -43.43236 163.51647 35754 ft 396 kts 262°
2026-05-09 08:35 -43.43489 163.44063 35762 ft 397 kts 262°
2026-05-09 08:36 -43.43736 163.36490 35772 ft 398 kts 262°
2026-05-09 08:36 -43.43981 163.28891 35749 ft 402 kts 262°
2026-05-09 08:37 -43.44224 163.21175 35778 ft 406 kts 262°
2026-05-09 08:37 -43.44466 163.13361 35770 ft 408 kts 262°
2026-05-09 08:38 -43.44701 163.05581 35778 ft 408 kts 262°
2026-05-09 08:38 -43.44923 162.97772 35779 ft 408 kts 263°
2026-05-09 08:39 -43.45141 162.89973 35777 ft 409 kts 263°
2026-05-09 08:39 -43.45359 162.82137 35781 ft 409 kts 263°
2026-05-09 08:40 -43.45571 162.74310 35782 ft 409 kts 263°
2026-05-09 08:40 -43.45778 162.66500 35788 ft 409 kts 263°
2026-05-09 08:41 -43.45979 162.58670 35759 ft 410 kts 263°
2026-05-09 08:41 -43.46175 162.50869 35795 ft 412 kts 263°
2026-05-09 08:42 -43.46367 162.42993 35792 ft 411 kts 263°
2026-05-09 08:42 -43.46553 162.35148 35799 ft 411 kts 263°
2026-05-09 08:43 -43.46735 162.27274 35791 ft 411 kts 263°
2026-05-09 08:43 -43.46910 162.19402 35793 ft 412 kts 263°
2026-05-09 08:44 -43.47081 162.11501 35802 ft 413 kts 263°
2026-05-09 08:44 -43.47247 162.03615 35810 ft 413 kts 263°
2026-05-09 08:45 -43.47406 161.95769 35807 ft 412 kts 263°
2026-05-09 08:45 -43.47561 161.87823 35805 ft 413 kts 264°
2026-05-09 08:46 -43.47709 161.79976 35816 ft 413 kts 264°
2026-05-09 08:46 -43.47853 161.72076 35817 ft 413 kts 264°
2026-05-09 08:47 -43.47991 161.64199 35814 ft 413 kts 264°
2026-05-09 08:47 -43.48124 161.56293 35791 ft 413 kts 264°
2026-05-09 08:48 -43.48252 161.48369 35825 ft 414 kts 264°
2026-05-09 08:48 -43.48374 161.40475 35821 ft 412 kts 264°
2026-05-09 08:49 -43.48490 161.32598 35816 ft 412 kts 264°
2026-05-09 08:49 -43.48601 161.24704 35832 ft 412 kts 264°
2026-05-09 08:50 -43.48706 161.16862 35798 ft 413 kts 264°
2026-05-09 08:50 -43.48808 161.08877 35836 ft 415 kts 264°
2026-05-09 08:51 -43.48902 161.00994 35832 ft 415 kts 264°
2026-05-09 08:51 -43.48992 160.93051 35836 ft 415 kts 264°
2026-05-09 08:52 -43.49077 160.85112 35834 ft 415 kts 264°
2026-05-09 08:52 -43.49155 160.77170 35826 ft 415 kts 265°
2026-05-09 08:53 -43.49229 160.69180 35846 ft 417 kts 265°
2026-05-09 08:53 -43.49297 160.61222 35851 ft 417 kts 265°
2026-05-09 08:54 -43.49360 160.53241 35856 ft 417 kts 265°
2026-05-09 08:54 -43.49417 160.45246 35869 ft 416 kts 265°
2026-05-09 08:55 -43.49468 160.37322 35838 ft 416 kts 265°
2026-05-09 08:55 -43.49507 160.30682 35867 ft 419 kts 265°
2026-05-09 08:56 -43.49548 160.22672 35860 ft 418 kts 265°
2026-05-09 08:56 -43.49584 160.14656 35867 ft 418 kts 265°
2026-05-09 08:57 -43.49615 160.06637 35865 ft 418 kts 265°
2026-05-09 08:57 -43.49639 159.98619 35857 ft 419 kts 265°
2026-05-09 08:58 -43.49658 159.90578 35870 ft 421 kts 265°
2026-05-09 08:58 -43.49672 159.82525 35875 ft 420 kts 266°
2026-05-09 08:59 -43.49680 159.74473 35876 ft 420 kts 266°
2026-05-09 08:59 -43.49682 159.66476 35884 ft 420 kts 266°
2026-05-09 09:00 -43.49679 159.58420 35881 ft 422 kts 266°
2026-05-09 09:00 -43.49670 159.50323 35888 ft 423 kts 266°
2026-05-09 09:01 -43.49655 159.42217 35899 ft 423 kts 266°
2026-05-09 09:01 -43.49635 159.34129 35887 ft 421 kts 266°
2026-05-09 09:02 -43.49608 159.26071 35890 ft 421 kts 266°
2026-05-09 09:02 -43.49577 159.17989 35910 ft 424 kts 266°
2026-05-09 09:03 -43.49539 159.09856 35899 ft 424 kts 266°
2026-05-09 09:03 -43.49495 159.01725 35898 ft 424 kts 266°
2026-05-09 09:04 -43.49447 158.93680 35904 ft 424 kts 266°
2026-05-09 09:04 -43.49392 158.85556 35881 ft 424 kts 267°
2026-05-09 09:05 -43.49331 158.77392 35914 ft 427 kts 267°
2026-05-09 09:05 -43.49264 158.69224 35911 ft 426 kts 267°
2026-05-09 09:06 -43.49191 158.61055 35917 ft 427 kts 267°
2026-05-09 09:06 -43.49113 158.52905 35916 ft 426 kts 267°
2026-05-09 09:07 -43.49029 158.44769 35903 ft 427 kts 267°
2026-05-09 09:07 -43.48939 158.36559 35930 ft 429 kts 267°
2026-05-09 09:08 -43.48842 158.28349 35925 ft 427 kts 267°
2026-05-09 09:08 -43.48743 158.20181 35928 ft 427 kts 267°
2026-05-09 09:09 -43.48637 158.11996 35932 ft 427 kts 267°
2026-05-09 09:09 -43.48527 158.03815 35930 ft 427 kts 268°
2026-05-09 09:10 -43.48411 157.95677 35937 ft 428 kts 268°
2026-05-09 09:10 -43.48289 157.87501 35939 ft 428 kts 268°
2026-05-09 09:11 -43.48161 157.79308 35938 ft 428 kts 268°
2026-05-09 09:11 -43.48007 157.71121 35923 ft 428 kts 268°
2026-05-09 09:12 -43.47860 157.62912 35940 ft 430 kts 268°
2026-05-09 09:12 -43.47709 157.54710 35949 ft 429 kts 268°
2026-05-09 09:13 -43.47553 157.46486 35945 ft 429 kts 268°
2026-05-09 09:13 -43.47390 157.38272 35956 ft 429 kts 268°
2026-05-09 09:14 -43.47222 157.30051 35935 ft 429 kts 268°
2026-05-09 09:14 -43.47048 157.21879 35963 ft 430 kts 268°
2026-05-09 09:15 -43.46868 157.13658 35956 ft 430 kts 268°
2026-05-09 09:15 -43.46681 157.05431 35966 ft 430 kts 268°
2026-05-09 09:16 -43.46489 156.97206 35965 ft 430 kts 268°
2026-05-09 09:16 -43.46189 156.84854 35973 ft 431 kts 269°
2026-05-09 09:17 -43.45981 156.76604 35974 ft 431 kts 269°
2026-05-09 09:17 -43.45769 156.68406 35975 ft 431 kts 269°
2026-05-09 09:18 -43.45550 156.60150 35982 ft 431 kts 269°
2026-05-09 09:18 -43.45325 156.51922 35965 ft 431 kts 269°
2026-05-09 09:19 -43.45093 156.43650 35986 ft 433 kts 269°
2026-05-09 09:19 -43.44855 156.35378 35985 ft 432 kts 269°
2026-05-09 09:20 -43.44611 156.27105 36004 ft 432 kts 269°
2026-05-09 09:20 -43.44362 156.18872 35992 ft 431 kts 269°
2026-05-09 09:21 -43.44108 156.10668 35995 ft 432 kts 269°
2026-05-09 09:21 -43.43846 156.02406 35994 ft 432 kts 269°
2026-05-09 09:22 -43.43581 155.94213 36004 ft 432 kts 269°
2026-05-09 09:22 -43.43308 155.85947 36004 ft 432 kts 269°
2026-05-09 09:23 -43.43029 155.77709 35989 ft 432 kts 269°
2026-05-09 09:23 -43.42744 155.69452 36018 ft 433 kts 269°
2026-05-09 09:24 -43.42452 155.61183 36013 ft 432 kts 269°
2026-05-09 09:24 -43.42155 155.52919 36015 ft 432 kts 269°
2026-05-09 09:25 -43.41852 155.44675 36022 ft 432 kts 269°
2026-05-09 09:25 -43.41544 155.36422 36012 ft 433 kts 269°
2026-05-09 09:26 -43.41227 155.28146 36023 ft 433 kts 269°
2026-05-09 09:26 -43.40906 155.19868 36032 ft 432 kts 269°
2026-05-09 09:27 -43.40582 155.11702 36032 ft 432 kts 269°
2026-05-09 09:27 -43.40250 155.03453 36036 ft 432 kts 269°
2026-05-09 09:28 -43.39911 154.95199 36040 ft 432 kts 269°
2026-05-09 09:28 -43.39566 154.86952 36046 ft 432 kts 269°
2026-05-09 09:29 -43.39217 154.78723 36040 ft 432 kts 269°
2026-05-09 09:29 -43.38860 154.70464 36045 ft 432 kts 269°
2026-05-09 09:30 -43.38497 154.62207 36021 ft 432 kts 269°
2026-05-09 09:30 -43.38128 154.53954 36049 ft 433 kts 269°
2026-05-09 09:31 -43.37756 154.45762 36059 ft 433 kts 269°
2026-05-09 09:32 -43.37183 154.33364 36059 ft 433 kts 269°
2026-05-09 09:32 -43.36793 154.25112 36062 ft 433 kts 269°
2026-05-09 09:33 -43.36397 154.16840 36074 ft 432 kts 269°
2026-05-09 09:33 -43.35997 154.08622 36073 ft 432 kts 269°
2026-05-09 09:34 -43.35591 154.00388 36067 ft 432 kts 269°
2026-05-09 09:34 -43.35179 153.92168 36067 ft 432 kts 270°
2026-05-09 09:36 -43.33473 153.59303 36074 ft 432 kts 270°
2026-05-09 09:37 -43.33031 153.51073 36083 ft 432 kts 270°
2026-05-09 09:37 -43.32583 153.42849 36079 ft 432 kts 269°
2026-05-09 09:38 -43.32129 153.34609 36092 ft 432 kts 270°
2026-05-09 09:38 -43.31669 153.26378 36093 ft 432 kts 270°
2026-05-09 09:39 -43.31203 153.18147 36101 ft 432 kts 270°
2026-05-09 09:39 -43.30732 153.09935 36082 ft 431 kts 270°
2026-05-09 09:40 -43.30256 153.01745 36106 ft 432 kts 270°
2026-05-09 09:40 -43.29775 152.93564 36097 ft 432 kts 270°
2026-05-09 09:41 -43.29287 152.85357 36114 ft 432 kts 270°
2026-05-09 09:41 -43.28791 152.77119 36114 ft 432 kts 270°
2026-05-09 09:42 -43.28291 152.68922 36095 ft 432 kts 270°
2026-05-09 09:42 -43.27871 152.62096 36121 ft 432 kts 270°
2026-05-09 09:43 -43.27272 152.52497 36121 ft 432 kts 270°
2026-05-09 09:43 -43.26757 152.44342 36126 ft 432 kts 270°
2026-05-09 09:44 -43.26320 152.37491 36127 ft 432 kts 270°
2026-05-09 09:44 -43.25790 152.29268 36121 ft 432 kts 270°
2026-05-09 09:45 -43.25257 152.21086 36128 ft 433 kts 270°
2026-05-09 09:45 -43.24714 152.12849 36138 ft 433 kts 270°
2026-05-09 09:46 -43.24167 152.04643 36136 ft 433 kts 270°
2026-05-09 09:46 -43.23612 151.96410 36143 ft 433 kts 270°
2026-05-09 09:47 -43.23052 151.88181 36150 ft 434 kts 270°
2026-05-09 09:47 -43.22484 151.79934 36144 ft 434 kts 270°
2026-05-09 09:48 -43.21913 151.71717 36154 ft 434 kts 270°
2026-05-09 09:48 -43.21333 151.63474 36159 ft 435 kts 270°
2026-05-09 09:49 -43.20750 151.55228 36136 ft 434 kts 270°
2026-05-09 09:49 -43.20160 151.46977 36156 ft 435 kts 270°
2026-05-09 09:50 -43.19567 151.38765 36165 ft 435 kts 270°
2026-05-09 09:50 -43.18967 151.30529 36165 ft 435 kts 270°
2026-05-09 09:51 -43.18361 151.22280 36167 ft 435 kts 270°
2026-05-09 09:51 -43.17748 151.14031 36174 ft 436 kts 270°
2026-05-09 09:52 -43.17131 151.05795 36177 ft 434 kts 270°
2026-05-09 09:52 -43.16511 150.97601 36179 ft 434 kts 270°
2026-05-09 09:53 -43.15143 150.89494 36205 ft 442 kts 282°
2026-05-09 09:53 -43.13231 150.81476 36160 ft 444 kts 282°
2026-05-09 09:54 -43.11286 150.73440 36184 ft 445 kts 282°
2026-05-09 09:54 -43.09336 150.65425 36195 ft 445 kts 282°
2026-05-09 09:55 -43.07375 150.57396 36200 ft 445 kts 282°
2026-05-09 09:55 -43.05407 150.49368 36200 ft 445 kts 282°
2026-05-09 09:56 -43.03432 150.41337 36206 ft 445 kts 282°
2026-05-09 09:56 -43.01460 150.33348 36205 ft 445 kts 282°
2026-05-09 09:57 -42.99478 150.25344 36205 ft 445 kts 282°
2026-05-09 09:57 -42.97496 150.17372 36201 ft 445 kts 283°
2026-05-09 09:58 -42.95502 150.09375 36213 ft 445 kts 283°
2026-05-09 09:58 -42.93504 150.01392 36217 ft 445 kts 283°
2026-05-09 09:59 -42.91496 149.93395 36224 ft 445 kts 283°
2026-05-09 09:59 -42.89484 149.85411 36209 ft 445 kts 283°
2026-05-09 10:00 -42.87462 149.77411 36226 ft 446 kts 283°
2026-05-09 10:00 -42.85438 149.69433 36230 ft 446 kts 283°
2026-05-09 10:01 -42.83406 149.61449 36236 ft 446 kts 283°
2026-05-09 10:01 -42.81382 149.53524 36226 ft 446 kts 283°
2026-05-09 10:02 -42.79333 149.45530 36239 ft 446 kts 283°
2026-05-09 10:02 -42.77289 149.37579 36257 ft 446 kts 283°
2026-05-09 10:03 -42.75229 149.29594 36249 ft 446 kts 283°
2026-05-09 10:03 -42.73166 149.21626 36237 ft 446 kts 283°
2026-05-09 10:03 -42.72135 149.17654 36082 ft 440 kts 283°
2026-05-09 10:04 -42.71258 149.13710 34750 ft 446 kts 274°
2026-05-09 10:04 -42.71013 149.09604 33983 ft 429 kts 263°
2026-05-09 10:04 -42.71230 149.05619 32851 ft 426 kts 261°
2026-05-09 10:04 -42.71393 149.01563 31582 ft 431 kts 262°
2026-05-09 10:05 -42.71526 148.97461 30248 ft 438 kts 263°
2026-05-09 10:05 -42.71641 148.93293 28715 ft 443 kts 264°
2026-05-09 10:05 -42.71743 148.89088 27244 ft 447 kts 264°
2026-05-09 10:05 -42.71844 148.84846 25782 ft 451 kts 264°
2026-05-09 10:06 -42.71943 148.80553 24162 ft 456 kts 265°
2026-05-09 10:06 -42.72042 148.76223 22858 ft 455 kts 265°
2026-05-09 10:06 -42.72142 148.72022 22002 ft 442 kts 265°
2026-05-09 10:06 -42.72239 148.67858 20852 ft 437 kts 265°
2026-05-09 10:07 -42.72333 148.63762 19857 ft 429 kts 265°
2026-05-09 10:07 -42.72423 148.59740 18928 ft 422 kts 264°
2026-05-09 10:07 -42.72511 148.55786 17975 ft 414 kts 265°
2026-05-09 10:07 -42.72594 148.51950 17041 ft 407 kts 265°
2026-05-09 10:08 -42.72676 148.48137 16139 ft 399 kts 265°
2026-05-09 10:08 -42.72755 148.44395 15289 ft 392 kts 265°
2026-05-09 10:08 -42.72831 148.40735 14485 ft 386 kts 265°
2026-05-09 10:08 -42.72905 148.37121 13710 ft 378 kts 265°
2026-05-09 10:09 -42.72977 148.33634 13502 ft 356 kts 265°
2026-05-09 10:09 -42.73044 148.30394 13479 ft 331 kts 265°
2026-05-09 10:09 -42.73106 148.27374 13473 ft 309 kts 265°
2026-05-09 10:09 -42.73162 148.24504 13432 ft 297 kts 265°
2026-05-09 10:10 -42.73216 148.21755 13373 ft 286 kts 264°
2026-05-09 10:10 -42.73266 148.19090 13331 ft 281 kts 264°
2026-05-09 10:10 -42.73315 148.16424 13309 ft 281 kts 264°
2026-05-09 10:10 -42.73362 148.13768 13295 ft 281 kts 264°
2026-05-09 10:11 -42.73409 148.11118 13294 ft 281 kts 264°
2026-05-09 10:11 -42.73456 148.08456 13286 ft 281 kts 264°
2026-05-09 10:11 -42.73501 148.05806 13285 ft 281 kts 264°
2026-05-09 10:11 -42.73546 148.03167 13007 ft 279 kts 264°
2026-05-09 10:12 -42.73590 148.00543 12619 ft 275 kts 265°
2026-05-09 10:12 -42.73632 147.97975 12099 ft 273 kts 265°
2026-05-09 10:12 -42.73675 147.95401 11524 ft 272 kts 265°
2026-05-09 10:12 -42.73716 147.92845 11021 ft 269 kts 265°
2026-05-09 10:13 -42.73755 147.90309 10499 ft 267 kts 265°
2026-05-09 10:13 -42.73795 147.87809 9991 ft 262 kts 265°
2026-05-09 10:13 -42.73834 147.85328 9281 ft 262 kts 265°
2026-05-09 10:13 -42.73871 147.82874 8627 ft 257 kts 264°
2026-05-09 10:14 -42.73907 147.80463 7778 ft 252 kts 264°
2026-05-09 10:14 -42.74003 147.78136 7088 ft 239 kts 252°
2026-05-09 10:14 -42.74701 147.76208 6492 ft 219 kts 225°
2026-05-09 10:14 -42.75891 147.75058 6063 ft 208 kts 201°
2026-05-09 10:15 -42.77279 147.74696 5813 ft 202 kts 181°
2026-05-09 10:15 -42.78632 147.74929 5621 ft 195 kts 173°
2026-05-09 10:15 -42.79944 147.75273 5422 ft 194 kts 173°
2026-05-09 10:15 -42.81284 147.75669 5203 ft 194 kts 172°
2026-05-09 10:16 -42.82557 147.76074 4957 ft 184 kts 172°
2026-05-09 10:16 -42.83774 147.76473 4711 ft 174 kts 172°
2026-05-09 10:16 -42.84917 147.76860 4579 ft 172 kts 172°
2026-05-09 10:16 -42.86076 147.76922 4464 ft 164 kts 200°
2026-05-09 10:17 -42.87131 147.76333 4435 ft 166 kts 205°
2026-05-09 10:17 -42.88190 147.75699 4402 ft 166 kts 205°
2026-05-09 10:17 -42.89234 147.75051 4308 ft 165 kts 206°
2026-05-09 10:17 -42.90281 147.74385 4219 ft 166 kts 207°
2026-05-09 10:18 -42.91321 147.73709 4076 ft 166 kts 207°
2026-05-09 10:18 -42.92233 147.72777 3896 ft 165 kts 234°
2026-05-09 10:18 -42.92632 147.71315 3652 ft 169 kts 259°
2026-05-09 10:18 -42.92700 147.69693 3404 ft 171 kts 263°
2026-05-09 10:19 -42.92736 147.68092 3168 ft 169 kts 264°
2026-05-09 10:19 -42.92761 147.66484 2894 ft 169 kts 265°
2026-05-09 10:19 -42.92765 147.64876 2590 ft 170 kts 271°
2026-05-09 10:19 -42.92306 147.63374 2290 ft 177 kts 302°
2026-05-09 10:20 -42.91486 147.62098 2048 ft 180 kts 308°
2026-05-09 10:20 -42.90639 147.60869 1816 ft 181 kts 309°
2026-05-09 10:20 -42.89777 147.59643 1537 ft 170 kts 310°
2026-05-09 10:20 -42.88994 147.58542 1330 ft 155 kts 310°
2026-05-09 10:21 -42.88258 147.57490 1057 ft 155 kts 310°
2026-05-09 10:21 -42.87524 147.56420 799 ft 153 kts 313°
2026-05-09 10:21 -42.86771 147.55445 634 ft 146 kts 316°
2026-05-09 10:21 -42.86048 147.54490 451 ft 145 kts 313°
2026-05-09 10:22 -42.85355 147.53503 295 ft 144 kts 315°
2026-05-09 10:22 -42.84623 147.52537 69 ft 146 kts 315°
2026-05-09 10:22 -42.83941 147.51614 20 ft 122 kts 315°
2026-05-09 10:22 -42.83541 147.51080 25 ft 40 kts 315°
2026-05-09 10:23 -42.83344 147.50811 19 ft 40 kts 306°
2026-05-09 10:23 -42.83353 147.50605 19 ft 10 kts 220°
2026-05-09 10:23 -42.83407 147.50553 22 ft 9 kts 188°
2026-05-09 10:23 -42.83443 147.50578 21 ft 4 kts 135°
2026-05-09 10:24 -42.83464 147.50606 23 ft 4 kts 135°
2026-05-09 10:24 -42.83484 147.50632 23 ft 4 kts 136°
2026-05-09 10:24 -42.83504 147.50659 26 ft 4 kts 135°
2026-05-09 10:24 -42.83531 147.50689 26 ft 5 kts 155°
2026-05-09 10:25 -42.83565 147.50688 24 ft 6 kts 204°
2026-05-09 10:25 -42.83613 147.50661 22 ft 9 kts 177°
2026-05-09 10:25 -42.83658 147.50661 21 ft 3 kts 224°
2026-05-09 10:25 -42.83670 147.50640 22 ft 3 kts 231°
2026-05-09 10:26 -42.83677 147.50630 24 ft 0 kts 225°